map of LAD home
LAD - Airport
Location
City:  Luanda, Luanda, Angola
Name:Aeroporto 4 de Fevereiro
ICAO:FNLU
IATA:LAD

Details
Type:Airport (Aerodrome, Airfield)
Use:Public/Civil, Military, International (customs port of entry)
Latitude:851'30"S (-8.858374)
Longitude:1313'52"E (13.231178)
Datum:other
Elevation:243 ft (74 m)
Variation:3.34W (WMM2015 magnetic declination)
0.17 annual change
Runways:2
Longest:12190 × 148 ft (3716 × 45 m), paved

Time
Time Zone:UTC+1
Local Time:

Weather
METAR:FNLU 170700Z 15004KT 5000 BR FEW015 BKN070 25/21 Q1014 NOSIG
TAF:FNLU 162300Z 1700/1806 19005KT 8000 FEW025 BKN050
BECMG 1703/1705 VRB03KT 5000 BR -RADZ SCT015 BKN025
BECMG 1708/1710 22010KT 9000 FEW015 BKN018
BECMG 1713/1717 28005KT NSC

Related Locations
Nearby:
Farthest:PLPA: 12062 mi / 19412 km
Palmyra Island Atoll [Palmyra Airport (Cooper)], UM

Find:

   beyond  
but within

Other Information
Maps:
NOTAMs:
Links:
Sources:

  
  • flag of Angola
  

Sectional Chart

Flight Planning
at skyvector.com

Satellite Image

Google Maps Satellite view

 

Copyright © 2004-2018 Karl L. Swartz. All rights reserved.
The Great Circle Mapper name and logo are trademarks of the Great Circle Mapper.
All other trademarks mentioned herein belong to their respective owners.
Please see credits for attibutions and further copyright information.

  Follow gcmap on Facebook Follow gcmap on Twitter Follow gcmap on Google+ GCmap on LinkedIn

hCard Microformat

Geo Microformat